QPF
0.11 0.08 0.04 0.03 0.04 0.04 0.02 0.01 0.01 0.01 0.01 0.01 0.02 0.01 0.01 0.02 0.02 0.03 0.04 0.05 0.05 0.04 0.04 0.04 0.05 0.06 0.05 0.03 0.03 0.04 0.05 0.04 0.03 0.02 0.01 0.01 0.01 0.01 0.01 0.01 0.01 0.01 0.01
0.07 0.05 0.03 0.03 0.03 0.02 0.02 0.01 0.02 0.02 0.01 0.01 0.01 0.02 0.02 0.02 0.02 0.02 0.02 0.02 0.02 0.02 0.02 0.02 0.03 0.05 0.04 0.03 0.02 0.02 0.02 0.03 0.03 0.02 0.02 0.03 0.03 0.02 0.03 0.03 0.02 0.02 0.02
0.03 0.03 0.04 0.03 0.03 0.02 0.02 0.01 0.02 0.02 0.02 0.02 0.02 0.02 0.02 0.02 0.01 0.01 0.01 0.01 0.01 0.02 0.02 0.02 0.02 0.03 0.03 0.03 0.03 0.02 0.03 0.03 0.03 0.02 0.01 0.02 0.03 0.02 0.03 0.03 0.03 0.03 0.02
0.04 0.04 0.04 0.03 0.03 0.03 0.02 0.02 0.03 0.02 0.02 0.02 0.01 0.01 0.01 0.02 0.01 0.01 0.01 0.01 0.01 0.01 0.02 0.02 0.02 0.02 0.02 0.03 0.03 0.03 0.04 0.03 0.03 0.02 0.01 0.01 0.01 0.02 0.02 0.03 0.04 0.04 0.03
0.04 0.04 0.03 0.02 0.03 0.04 0.03 0.03 0.02 0.02 0.02 0.02 0.01 0.01 0.02 0.03 0.02 0.01 0.01 0.02 0.02 0.02 0.02 0.02 0.02 0.02 0.02 0.02 0.02 0.03 0.03 0.03 0.02 0.02 0.01 0.01 0.01 0.01 0.01 0.02 0.03 0.04 0.04
0.05 0.04 0.04 0.04 0.04 0.04 0.03 0.02 0.02 0.02 0.02 0.01 0.01 0.01 0.02 0.02 0.02 0.02 0.02 0.02 0.02 0.03 0.03 0.03 0.03 0.02 0.02 0.02 0.02 0.03 0.03 0.03 0.02 0.02 0.01 0.00 0.00 0.01 0.01 0.01 0.01 0.02 0.03
0.06 0.05 0.05 0.05 0.04 0.04 0.04 0.03 0.02 0.02 0.02 0.01 0.01 0.01 0.01 0.02 0.03 0.03 0.03 0.03 0.03 0.03 0.03 0.03 0.02 0.01 0.01 0.02 0.02 0.02 0.02 0.03 0.02 0.02 0.01 0.00 0.01 0.01 0.02 0.02 0.01 0.01 0.01
0.09 0.07 0.06 0.05 0.05 0.04 0.04 0.04 0.04 0.03 0.03 0.02 0.02 0.02 0.02 0.02 0.03 0.04 0.04 0.04 0.03 0.03 0.03 0.03 0.02 0.02 0.02 0.02 0.02 0.02 0.01 0.02 0.02 0.02 0.01 0.01 0.01 0.02 0.02 0.03 0.03 0.02 0.01
0.08 0.05 0.05 0.04 0.05 0.05 0.05 0.03 0.03 0.03 0.04 0.03 0.03 0.03 0.04 0.04 0.05 0.07 0.07 0.05 0.03 0.03 0.03 0.02 0.01 0.01 0.03 0.04 0.03 0.02 0.01 0.01 0.02 0.02 0.01 0.01 0.02 0.02 0.02 0.03 0.03 0.04 0.02
0.03 0.03 0.03 0.04 0.05 0.05 0.04 0.03 0.04 0.04 0.04 0.05 0.06 0.07 0.08 0.07 0.09 0.10 0.11 0.07 0.05 0.04 0.03 0.02 0.02 0.03 0.04 0.04 0.02 0.02 0.02 0.02 0.01 0.01 0.01 0.02 0.02 0.02 0.01 0.01 0.01 0.03 0.03
0.04 0.04 0.05 0.06 0.05 0.04 0.03 0.03 0.03 0.05 0.06 0.07 0.08 0.09 0.10 0.11 0.15 0.16 0.14 0.10 0.07 0.05 0.04 0.04 0.04 0.03 0.03 0.02 0.02 0.02 0.02 0.03 0.03 0.03 0.02 0.02 0.02 0.02 0.01 0.01 0.01 0.01 0.01
0.03 0.03 0.03 0.04 0.03 0.02 0.02 0.02 0.03 0.04 0.06 0.08 0.10 0.12 0.15 0.17 0.18 0.17 0.14 0.10 0.08 0.07 0.07 0.06 0.04 0.03 0.03 0.02 0.02 0.02 0.02 0.03 0.04 0.04 0.03 0.02 0.02 0.01 0.01 0.01 0.02 0.02 0.01
0.02 0.02 0.01 0.02 0.02 0.02 0.02 0.02 0.03 0.04 0.05 0.05 0.06 0.06 0.05 0.06 0.08 0.11 0.11 0.10 0.10 0.09 0.05 0.02 0.02 0.01 0.02 0.02 0.02 0.02 0.03 0.03 0.03 0.03 0.02 0.02 0.03 0.03 0.03 0.03 0.03 0.03 0.02
0.02 0.01 0.02 0.02 0.02 0.02 0.02 0.02 0.02 0.02 0.02 0.02 0.03 0.02 0.02 0.03 0.03 0.05 0.08 0.11 0.09 0.05 0.03 0.03 0.02 0.02 0.02 0.02 0.03 0.04 0.04 0.06 0.06 0.04 0.02 0.02 0.02 0.03 0.03 0.02 0.02 0.02 0.02
0.02 0.02 0.03 0.03 0.03 0.03 0.02 0.02 0.01 0.01 0.01 0.02 0.02 0.02 0.02 0.03 0.04 0.06 0.07 0.06 0.04 0.03 0.04 0.04 0.03 0.04 0.04 0.04 0.04 0.05 0.05 0.05 0.05 0.04 0.03 0.02 0.02 0.02 0.02 0.02 0.02 0.02 0.02
0.02 0.02 0.02 0.02 0.02 0.02 0.01 0.01 0.01 0.01 0.01 0.01 0.01 0.02 0.02 0.03 0.05 0.06 0.04 0.03 0.04 0.04 0.03 0.02 0.02 0.03 0.03 0.03 0.03 0.04 0.04 0.03 0.03 0.03 0.03 0.02 0.02 0.02 0.02 0.02 0.02 0.02 0.02
0.02 0.02 0.02 0.02 0.02 0.01 0.01 0.01 0.01 0.01 0.02 0.02 0.03 0.03 0.03 0.04 0.04 0.04 0.04 0.04 0.04 0.04 0.03 0.02 0.02 0.03 0.03 0.03 0.02 0.02 0.02 0.02 0.03 0.03 0.02 0.02 0.02 0.02 0.02 0.02 0.02 0.02 0.02
0.02 0.02 0.02 0.02 0.01 0.01 0.02 0.02 0.02 0.02 0.02 0.02 0.02 0.02 0.02 0.02 0.01 0.01 0.02 0.03 0.02 0.02 0.02 0.02 0.02 0.02 0.01 0.01 0.01 0.02 0.02 0.02 0.02 0.02 0.01 0.01 0.01 0.02 0.02 0.03 0.04 0.05 0.05
0.02 0.02 0.02 0.02 0.02 0.02 0.02 0.02 0.01 0.01 0.01 0.01 0.01 0.02 0.02 0.01 0.01 0.01 0.01 0.01 0.01 0.01 0.01 0.02 0.02 0.02 0.02 0.02 0.02 0.02 0.02 0.01 0.01 0.02 0.01 0.01 0.01 0.01 0.02 0.03 0.04 0.04 0.04
0.03 0.03 0.03 0.02 0.02 0.02 0.01 0.01 0.01 0.01 0.01 0.01 0.01 0.01 0.02 0.02 0.02 0.01 0.01 0.01 0.01 0.01 0.01 0.02 0.02 0.03 0.03 0.03 0.03 0.03 0.02 0.02 0.02 0.01 0.01 0.01 0.01 0.02 0.03 0.04 0.05 0.05 0.04
0.01 0.01 0.02 0.01 0.00 0.00 0.01 0.01 0.01 0.01 0.01 0.01 0.01 0.01 0.02 0.02 0.02 0.02 0.02 0.01 0.01 0.01 0.01 0.01 0.02 0.02 0.02 0.03 0.03 0.03 0.03 0.03 0.02 0.03 0.03 0.03 0.03 0.04 0.05 0.06 0.05 0.05 0.05
0.01 0.01 0.01 0.01 0.01 0.01 0.02 0.01 0.02 0.02 0.01 0.01 0.01 0.01 0.01 0.01 0.01 0.01 0.01 0.02 0.02 0.02 0.03 0.03 0.03 0.03 0.03 0.03 0.03 0.03 0.03 0.03 0.03 0.04 0.05 0.05 0.04 0.04 0.04 0.05 0.05 0.04 0.04
0.01 0.00 0.00 0.01 0.02 0.02 0.02 0.01 0.01 0.01 0.01 0.00 0.00 0.01 0.01 0.00 0.01 0.01 0.01 0.01 0.01 0.02 0.03 0.04 0.04 0.04 0.04 0.03 0.03 0.04 0.03 0.03 0.02 0.03 0.05 0.06 0.06 0.07 0.08 0.08 0.08 0.07 0.06
0.01 0.01 0.01 0.01 0.01 0.01 0.01 0.01 0.01 0.02 0.01 0.01 0.01 0.01 0.01 0.00 0.01 0.01 0.01 0.01 0.01 0.01 0.02 0.03 0.03 0.03 0.04 0.04 0.04 0.05 0.05 0.05 0.05 0.05 0.06 0.05 0.06 0.06 0.07 0.07 0.07 0.06 0.06
0.01 0.01 0.02 0.02 0.02 0.02 0.03 0.03 0.03 0.03 0.02 0.01 0.01 0.02 0.02 0.02 0.02 0.02 0.01 0.02 0.02 0.02 0.02 0.03 0.02 0.03 0.04 0.04 0.04 0.05 0.07 0.09 0.09 0.09 0.07 0.06 0.05 0.05 0.06 0.05 0.05 0.04 0.04
0.02 0.02 0.01 0.01 0.02 0.02 0.03 0.03 0.03 0.03 0.02 0.03 0.03 0.03 0.03 0.03 0.03 0.02 0.02 0.02 0.02 0.03 0.03 0.02 0.02 0.02 0.03 0.03 0.04 0.04 0.05 0.06 0.06 0.07 0.07 0.06 0.05 0.04 0.04 0.04 0.04 0.04 0.04
MSLP
1009.09 1009.58 1010.11 1010.63 1011.06 1011.38 1011.56 1011.63 1011.62 1011.59 1011.57 1011.60 1011.71 1011.89 1012.13 1012.41 1012.69 1012.98 1013.24 1013.48 1013.70 1013.92 1014.15 1014.41 1014.69 1015.01 1015.38 1015.79 1016.25 1016.74 1017.28 1017.83 1018.40 1018.96 1019.50 1019.99 1020.42 1020.79 1021.09 1021.33 1021.53 1021.70 1021.87
1008.22 1008.71 1009.26 1009.79 1010.25 1010.60 1010.82 1010.94 1010.97 1010.97 1010.97 1011.01 1011.11 1011.28 1011.51 1011.78 1012.06 1012.35 1012.61 1012.86 1013.08 1013.28 1013.48 1013.69 1013.92 1014.19 1014.51 1014.88 1015.31 1015.81 1016.36 1016.96 1017.59 1018.23 1018.86 1019.44 1019.96 1020.41 1020.79 1021.10 1021.35 1021.57 1021.78
1007.48 1007.98 1008.52 1009.05 1009.52 1009.89 1010.14 1010.29 1010.36 1010.38 1010.40 1010.45 1010.54 1010.69 1010.89 1011.13 1011.39 1011.65 1011.90 1012.13 1012.34 1012.53 1012.71 1012.89 1013.09 1013.33 1013.61 1013.96 1014.38 1014.87 1015.44 1016.07 1016.75 1017.45 1018.14 1018.80 1019.40 1019.93 1020.38 1020.76 1021.08 1021.35 1021.59
1006.93 1007.42 1007.95 1008.47 1008.93 1009.30 1009.57 1009.73 1009.83 1009.87 1009.90 1009.95 1010.02 1010.14 1010.29 1010.48 1010.69 1010.90 1011.11 1011.31 1011.49 1011.66 1011.82 1011.99 1012.18 1012.40 1012.67 1013.01 1013.41 1013.91 1014.48 1015.12 1015.82 1016.56 1017.30 1018.01 1018.67 1019.27 1019.80 1020.24 1020.63 1020.96 1021.26
1006.61 1007.09 1007.59 1008.08 1008.51 1008.87 1009.13 1009.31 1009.42 1009.48 1009.51 1009.55 1009.59 1009.66 1009.75 1009.86 1009.99 1010.13 1010.27 1010.41 1010.55 1010.69 1010.84 1011.01 1011.19 1011.41 1011.68 1012.00 1012.41 1012.89 1013.45 1014.09 1014.79 1015.52 1016.28 1017.02 1017.73 1018.38 1018.97 1019.49 1019.95 1020.35 1020.71
1006.50 1006.97 1007.44 1007.88 1008.27 1008.60 1008.85 1009.03 1009.14 1009.21 1009.25 1009.27 1009.27 1009.28 1009.29 1009.31 1009.33 1009.37 1009.42 1009.49 1009.58 1009.68 1009.81 1009.97 1010.15 1010.37 1010.64 1010.96 1011.35 1011.81 1012.34 1012.95 1013.62 1014.34 1015.08 1015.83 1016.56 1017.25 1017.89 1018.48 1019.01 1019.49 1019.93
1006.61 1007.04 1007.46 1007.85 1008.19 1008.47 1008.70 1008.88 1009.00 1009.07 1009.10 1009.10 1009.06 1009.00 1008.93 1008.84 1008.75 1008.68 1008.63 1008.61 1008.63 1008.69 1008.79 1008.93 1009.11 1009.33 1009.59 1009.90 1010.27 1010.69 1011.18 1011.74 1012.36 1013.03 1013.74 1014.47 1015.20 1015.92 1016.60 1017.24 1017.85 1018.41 1018.94
1006.86 1007.24 1007.60 1007.93 1008.21 1008.45 1008.66 1008.82 1008.94 1009.01 1009.04 1009.02 1008.94 1008.82 1008.65 1008.46 1008.27 1008.08 1007.92 1007.82 1007.76 1007.77 1007.84 1007.97 1008.14 1008.35 1008.60 1008.88 1009.22 1009.59 1010.03 1010.52 1011.08 1011.69 1012.36 1013.05 1013.77 1014.49 1015.20 1015.89 1016.55 1017.19 1017.80
1007.19 1007.51 1007.80 1008.05 1008.27 1008.47 1008.64 1008.79 1008.90 1008.98 1009.00 1008.95 1008.84 1008.66 1008.42 1008.14 1007.85 1007.57 1007.32 1007.13 1007.02 1006.98 1007.01 1007.11 1007.27 1007.46 1007.69 1007.95 1008.25 1008.58 1008.95 1009.38 1009.87 1010.42 1011.03 1011.69 1012.38 1013.09 1013.81 1014.53 1015.24 1015.93 1016.61
1007.53 1007.78 1007.99 1008.16 1008.32 1008.46 1008.59 1008.72 1008.82 1008.89 1008.90 1008.84 1008.69 1008.47 1008.17 1007.83 1007.46 1007.11 1006.79 1006.54 1006.38 1006.30 1006.31 1006.39 1006.53 1006.70 1006.91 1007.15 1007.40 1007.69 1008.01 1008.39 1008.82 1009.32 1009.87 1010.49 1011.15 1011.85 1012.57 1013.30 1014.03 1014.75 1015.46
1007.83 1007.99 1008.12 1008.21 1008.29 1008.38 1008.47 1008.57 1008.65 1008.69 1008.69 1008.60 1008.43 1008.17 1007.84 1007.45 1007.04 1006.64 1006.29 1006.01 1005.81 1005.72 1005.71 1005.77 1005.90 1006.06 1006.26 1006.47 1006.70 1006.95 1007.24 1007.57 1007.97 1008.42 1008.94 1009.53 1010.17 1010.84 1011.55 1012.27 1012.99 1013.72 1014.43
1008.05 1008.13 1008.16 1008.18 1008.19 1008.21 1008.25 1008.30 1008.35 1008.36 1008.33 1008.22 1008.02 1007.73 1007.37 1006.96 1006.54 1006.12 1005.76 1005.47 1005.28 1005.17 1005.16 1005.22 1005.34 1005.50 1005.68 1005.88 1006.09 1006.33 1006.60 1006.92 1007.30 1007.73 1008.24 1008.80 1009.42 1010.07 1010.75 1011.45 1012.15 1012.85 1013.54
1008.19 1008.18 1008.14 1008.08 1008.02 1007.98 1007.95 1007.95 1007.94 1007.90 1007.82 1007.67 1007.43 1007.13 1006.75 1006.34 1005.92 1005.52 1005.17 1004.90 1004.71 1004.62 1004.62 1004.68 1004.80 1004.95 1005.13 1005.33 1005.54 1005.78 1006.05 1006.37 1006.75 1007.19 1007.69 1008.25 1008.85 1009.48 1010.13 1010.80 1011.46 1012.12 1012.77
1008.27 1008.19 1008.07 1007.94 1007.82 1007.71 1007.62 1007.54 1007.46 1007.35 1007.20 1007.00 1006.72 1006.39 1006.01 1005.60 1005.19 1004.82 1004.50 1004.25 1004.10 1004.03 1004.03 1004.10 1004.22 1004.37 1004.55 1004.74 1004.96 1005.21 1005.50 1005.84 1006.24 1006.69 1007.20 1007.76 1008.36 1008.98 1009.60 1010.23 1010.86 1011.47 1012.08
1008.31 1008.17 1008.00 1007.81 1007.63 1007.45 1007.29 1007.13 1006.96 1006.77 1006.55 1006.27 1005.95 1005.58 1005.18 1004.78 1004.39 1004.05 1003.76 1003.55 1003.42 1003.37 1003.39 1003.46 1003.57 1003.72 1003.89 1004.08 1004.31 1004.57 1004.88 1005.24 1005.66 1006.14 1006.67 1007.24 1007.84 1008.45 1009.06 1009.67 1010.26 1010.84 1011.41
1008.33 1008.16 1007.95 1007.73 1007.49 1007.26 1007.02 1006.77 1006.52 1006.23 1005.92 1005.57 1005.19 1004.78 1004.37 1003.97 1003.59 1003.27 1003.01 1002.83 1002.71 1002.67 1002.68 1002.74 1002.84 1002.96 1003.12 1003.31 1003.53 1003.80 1004.12 1004.51 1004.95 1005.45 1006.01 1006.59 1007.20 1007.81 1008.42 1009.02 1009.60 1010.17 1010.73
1008.35 1008.16 1007.93 1007.68 1007.41 1007.12 1006.82 1006.49 1006.15 1005.77 1005.37 1004.95 1004.51 1004.06 1003.62 1003.21 1002.85 1002.54 1002.30 1002.12 1002.01 1001.95 1001.95 1001.98 1002.04 1002.14 1002.27 1002.43 1002.64 1002.91 1003.24 1003.63 1004.09 1004.61 1005.18 1005.78 1006.40 1007.03 1007.65 1008.25 1008.85 1009.43 1010.01
1008.35 1008.15 1007.92 1007.65 1007.35 1007.02 1006.66 1006.27 1005.84 1005.39 1004.91 1004.42 1003.93 1003.45 1002.99 1002.57 1002.20 1001.89 1001.65 1001.46 1001.34 1001.25 1001.21 1001.20 1001.22 1001.27 1001.36 1001.49 1001.68 1001.93 1002.25 1002.65 1003.11 1003.64 1004.22 1004.83 1005.47 1006.11 1006.75 1007.39 1008.01 1008.64 1009.26
1008.29 1008.09 1007.86 1007.58 1007.26 1006.90 1006.50 1006.05 1005.57 1005.06 1004.52 1003.98 1003.45 1002.94 1002.46 1002.03 1001.65 1001.34 1001.08 1000.87 1000.71 1000.58 1000.49 1000.43 1000.39 1000.39 1000.43 1000.52 1000.67 1000.90 1001.21 1001.59 1002.05 1002.58 1003.16 1003.78 1004.43 1005.10 1005.77 1006.45 1007.13 1007.81 1008.50
1008.14 1007.94 1007.70 1007.42 1007.09 1006.71 1006.27 1005.79 1005.27 1004.72 1004.15 1003.57 1003.02 1002.49 1002.00 1001.56 1001.17 1000.84 1000.55 1000.31 1000.11 999.93 999.78 999.66 999.57 999.51 999.50 999.55 999.67 999.87 1000.16 1000.53 1000.98 1001.50 1002.08 1002.70 1003.37 1004.05 1004.76 1005.48 1006.22 1006.98 1007.74
1007.87 1007.67 1007.42 1007.13 1006.78 1006.38 1005.93 1005.43 1004.89 1004.31 1003.73 1003.14 1002.58 1002.04 1001.54 1001.09 1000.69 1000.34 1000.02 999.75 999.49 999.27 999.06 998.89 998.74 998.63 998.58 998.60 998.69 998.87 999.14 999.50 999.93 1000.44 1001.02 1001.64 1002.32 1003.02 1003.76 1004.53 1005.33 1006.15 1006.99
1007.49 1007.26 1007.00 1006.69 1006.33 1005.92 1005.46 1004.94 1004.39 1003.81 1003.23 1002.64 1002.08 1001.54 1001.04 1000.58 1000.17 999.79 999.44 999.12 998.83 998.55 998.30 998.08 997.89 997.75 997.67 997.67 997.75 997.91 998.17 998.51 998.94 999.44 1000.01 1000.64 1001.31 1002.04 1002.80 1003.61 1004.45 1005.33 1006.24
1007.02 1006.76 1006.48 1006.15 1005.77 1005.35 1004.87 1004.35 1003.80 1003.22 1002.64 1002.06 1001.50 1000.96 1000.46 999.99 999.55 999.15 998.77 998.41 998.08 997.77 997.48 997.22 997.01 996.86 996.77 996.76 996.83 996.99 997.25 997.59 998.01 998.50 999.06 999.69 1000.37 1001.10 1001.88 1002.72 1003.59 1004.52 1005.47
1006.51 1006.23 1005.92 1005.56 1005.17 1004.73 1004.25 1003.72 1003.17 1002.59 1002.01 1001.43 1000.86 1000.32 999.81 999.32 998.86 998.42 998.01 997.62 997.25 996.91 996.60 996.33 996.11 995.95 995.87 995.87 995.95 996.12 996.38 996.72 997.14 997.63 998.18 998.80 999.48 1000.21 1001.00 1001.85 1002.76 1003.71 1004.69
1006.04 1005.73 1005.39 1005.03 1004.62 1004.16 1003.67 1003.14 1002.58 1001.99 1001.41 1000.82 1000.24 999.68 999.14 998.62 998.12 997.65 997.21 996.79 996.39 996.03 995.71 995.44 995.23 995.08 995.02 995.04 995.14 995.32 995.59 995.93 996.35 996.83 997.37 997.98 998.65 999.38 1000.17 1001.03 1001.94 1002.91 1003.92
1005.65 1005.33 1004.99 1004.61 1004.19 1003.73 1003.23 1002.68 1002.11 1001.52 1000.91 1000.30 999.69 999.10 998.52 997.97 997.43 996.92 996.44 995.99 995.58 995.21 994.89 994.62 994.43 994.31 994.27 994.31 994.43 994.64 994.91 995.25 995.66 996.13 996.66 997.25 997.90 998.62 999.41 1000.26 1001.19 1002.16 1003.18
Thickness
5788 5786 5783 5780 5778 5776 5773 5771 5769 5767 5764 5761 5758 5755 5751 5748 5746 5743 5740 5738 5736 5733 5732 5730 5728 5727 5725 5724 5722 5720 5716 5712 5705 5705 5707 5708 5706 5705 5704 5703 5701 5700 5698
5787 5784 5780 5778 5775 5772 5770 5769 5766 5763 5761 5758 5755 5751 5748 5745 5743 5739 5736 5734 5731 5728 5727 5725 5723 5722 5720 5719 5716 5714 5712 5709 5704 5699 5699 5700 5699 5699 5698 5696 5696 5694 5693
5785 5780 5777 5774 5771 5769 5767 5765 5763 5760 5757 5755 5751 5747 5744 5741 5739 5736 5733 5730 5727 5725 5722 5720 5718 5716 5714 5712 5711 5709 5707 5706 5702 5696 5694 5694 5693 5693 5692 5691 5690 5688 5688
5781 5777 5773 5771 5769 5766 5764 5761 5759 5756 5753 5751 5747 5744 5741 5738 5735 5732 5729 5726 5723 5721 5719 5717 5714 5712 5709 5707 5705 5703 5701 5698 5696 5692 5689 5687 5686 5686 5684 5682 5681 5681 5681
5778 5773 5769 5768 5765 5762 5760 5757 5755 5752 5750 5746 5743 5740 5737 5734 5732 5728 5725 5722 5719 5716 5714 5712 5711 5709 5707 5704 5702 5698 5696 5692 5688 5685 5682 5681 5679 5678 5676 5676 5674 5674 5674
5772 5768 5765 5763 5760 5757 5755 5752 5749 5746 5744 5741 5738 5735 5732 5731 5728 5725 5722 5718 5715 5712 5709 5707 5706 5704 5702 5700 5698 5696 5693 5689 5684 5680 5677 5675 5674 5674 5672 5671 5668 5666 5665
5766 5762 5760 5757 5754 5752 5749 5746 5742 5740 5737 5735 5732 5730 5727 5725 5723 5721 5718 5714 5710 5707 5705 5702 5701 5700 5697 5694 5692 5691 5689 5687 5685 5680 5675 5673 5671 5670 5668 5665 5663 5662 5662
5761 5757 5754 5752 5749 5746 5742 5739 5736 5734 5731 5728 5726 5724 5722 5720 5718 5715 5712 5708 5705 5703 5701 5698 5695 5693 5692 5688 5686 5684 5682 5681 5680 5678 5675 5674 5672 5669 5666 5664 5661 5659 5659
5755 5752 5749 5746 5743 5739 5735 5732 5730 5727 5724 5722 5721 5718 5715 5713 5712 5709 5706 5701 5698 5697 5696 5694 5691 5688 5686 5684 5679 5676 5675 5674 5675 5673 5672 5670 5668 5666 5663 5658 5654 5650 5649
5749 5748 5745 5742 5738 5733 5730 5726 5724 5721 5718 5716 5714 5711 5709 5706 5705 5703 5700 5695 5692 5689 5688 5687 5685 5683 5680 5678 5674 5670 5667 5667 5667 5666 5665 5663 5661 5660 5658 5654 5651 5646 5643
5745 5743 5739 5735 5731 5727 5724 5720 5717 5714 5711 5708 5706 5704 5702 5700 5698 5696 5693 5689 5686 5683 5680 5678 5677 5676 5674 5671 5669 5666 5665 5663 5660 5658 5657 5656 5655 5653 5652 5650 5649 5645 5641
5738 5735 5731 5727 5724 5722 5717 5713 5710 5706 5702 5700 5697 5695 5694 5692 5690 5688 5685 5682 5679 5676 5673 5672 5670 5669 5666 5665 5663 5662 5660 5658 5654 5652 5650 5648 5647 5647 5647 5646 5645 5643 5642
5730 5726 5723 5720 5716 5713 5709 5705 5702 5698 5694 5691 5688 5686 5684 5683 5682 5679 5677 5674 5672 5668 5666 5665 5663 5661 5659 5658 5657 5656 5654 5651 5648 5645 5644 5644 5643 5642 5640 5640 5639 5638 5638
5720 5717 5714 5711 5707 5705 5702 5698 5694 5690 5687 5684 5681 5679 5676 5674 5672 5670 5668 5665 5663 5660 5657 5656 5655 5653 5651 5651 5649 5648 5646 5644 5642 5640 5639 5639 5637 5635 5634 5633 5631 5630 5628
5711 5708 5705 5702 5699 5695 5692 5689 5687 5685 5682 5678 5676 5673 5669 5667 5666 5663 5660 5657 5654 5651 5648 5646 5644 5643 5642 5641 5640 5639 5638 5637 5635 5634 5633 5631 5630 5630 5629 5628 5625 5624 5622
5702 5699 5696 5693 5690 5687 5683 5680 5679 5677 5675 5672 5670 5667 5664 5662 5660 5656 5653 5650 5647 5644 5640 5637 5636 5635 5633 5633 5632 5631 5630 5630 5629 5628 5626 5625 5624 5623 5622 5621 5620 5618 5617
5694 5691 5687 5684 5682 5679 5676 5672 5669 5667 5666 5664 5662 5660 5657 5655 5652 5648 5645 5642 5638 5635 5631 5630 5628 5627 5627 5626 5625 5624 5623 5623 5622 5621 5620 5619 5617 5616 5615 5614 5613 5612 5612
5685 5683 5680 5677 5674 5671 5668 5665 5662 5659 5657 5655 5653 5651 5649 5646 5643 5640 5636 5632 5628 5625 5624 5622 5621 5621 5620 5619 5618 5617 5616 5615 5614 5613 5613 5612 5611 5609 5609 5608 5607 5607 5607
5676 5673 5671 5668 5666 5663 5660 5657 5655 5652 5649 5647 5644 5642 5640 5637 5634 5630 5627 5623 5621 5619 5617 5616 5615 5613 5612 5611 5611 5610 5609 5608 5607 5606 5606 5605 5604 5603 5602 5602 5602 5603 5601
5667 5666 5664 5660 5657 5655 5652 5649 5647 5644 5641 5639 5636 5634 5631 5628 5624 5621 5618 5616 5614 5613 5611 5609 5608 5607 5605 5603 5602 5601 5601 5600 5599 5599 5599 5599 5599 5598 5597 5597 5597 5597 5597
5658 5657 5656 5653 5650 5648 5645 5642 5640 5637 5634 5632 5630 5628 5625 5621 5619 5616 5613 5611 5609 5607 5605 5603 5601 5600 5598 5596 5595 5594 5593 5593 5593 5593 5593 5594 5593 5593 5593 5593 5592 5593 5592
5651 5649 5647 5645 5643 5641 5638 5635 5633 5630 5628 5625 5623 5621 5618 5615 5612 5610 5608 5606 5604 5602 5600 5598 5596 5594 5593 5591 5590 5588 5587 5587 5587 5587 5587 5588 5588 5588 5588 5587 5587 5587 5587
5644 5642 5640 5638 5636 5634 5631 5628 5626 5623 5621 5619 5617 5615 5612 5609 5607 5604 5602 5600 5599 5597 5595 5593 5590 5589 5588 5587 5585 5584 5583 5583 5583 5583 5583 5583 5582 5582 5582 5582 5582 5582 5581
5637 5635 5633 5631 5629 5626 5624 5622 5620 5618 5615 5613 5611 5609 5606 5604 5601 5599 5596 5595 5593 5591 5589 5588 5586 5584 5583 5582 5580 5579 5579 5579 5579 5578 5578 5578 5578 5577 5577 5576 5576 5576 5576
5630 5628 5626 5624 5621 5619 5617 5615 5613 5611 5609 5607 5605 5602 5600 5597 5595 5592 5590 5589 5587 5585 5583 5582 5581 5580 5579 5577 5575 5575 5575 5574 5574 5574 5574 5574 5573 5573 5572 5571 5571 5571 5570
5622 5621 5619 5617 5615 5613 5610 5608 5606 5604 5602 5600 5598 5596 5594 5591 5589 5587 5585 5583 5582 5580 5578 5577 5576 5575 5575 5573 5572 5571 5570 5570 5570 5569 5569 5568 5567 5567 5566 5566 5566 5565 5565